Location: Boiro
(42.6475°N, 8.8834°W)
Time: 20:38:09
(UTC+01:00)

Vanguard 1 - Pass Details

Date: 04 December 2021
Orbit: 652 x 3830 km, 34.2° (Epoch: 19 January)

Event Time Altitude Azimuth Distance (km) Brightness Sun altitude
Rises 23:23:22 0° 210° (SSW) 6,559 14.3 -57.4°
Reaches altitude 10° 23:27:43 10° 203° (SSW) 5,913 13.9 -58.1°
Enters shadow 23:28:55 13° 200° (SSW) 5,753 13.8 -58.3°
Maximum altitude 23:45:22 39° 142° (SE) 4,808 - -60.9°
Drops below altitude 10° 00:05:19 10° 84° (E) 6,694 - -63.7°
Exits shadow 00:10:22 - 78° (ENE) 7,445 14.4 -64.3°
Sets 00:10:34 0° 78° (ENE) 7,474 14.4 -64.3°
